Flag for United Kingdom Weather past 2 weeks in Telford, England, United Kingdom

Now
37 °F

Mostly cloudy.


Feels Like: 31 °F
Forecast: 35 / 50 °F
Wind: 8 mph from West

Location: Shawbury

Current Time: Mar 27, 2015 at 8:51:42 AM

Latest Report: Mar 27, 2015 at 7:50 AM


Visibility: N/A

Pressure: 30.07 "Hg

Humidity: 87%

Dew point: 34 °F

Location of TelfordLocation

Historic Weather in Telford — Graph

°F

Telford temperature yesterday

Maximum temperature yesterday: 50 °F (at 10:50 AM)
Minimum temperature yesterday: 37 °F (at 2:50 AM)
Average temperature yesterday: 44 °F

Past Weeks' High & Low Weather Summary

 TemperatureHumidityPressure
High55 °F (Mar 12, 12:50 PM)100% (Mar 13, 8:50 PM)30.60 "Hg (Mar 13, 8:50 PM)
Low28 °F (Mar 18, 1:50 AM)47% (Mar 12, 5:50 PM)29.45 "Hg (Mar 26, 4:50 AM)
Average41 °F82%30.22 "Hg
* Reported Mar 12 6:50 AM — Mar 27 6:50 AM, Telford, Weather by CustomWeather, © 2015

Note: Actual official high and low records may vary slightly from our data, if they occured in-between our weather recording intervals... More about our weather records

Advertising

Telford weather history for previous 24 hours

 ConditionsComfort  
Time TempWeatherWind HumidityBarometerVisibility
6:50 AM
Fri, Mar 27
34 °FBroken clouds.8 mph93%30.07 "HgN/A
5:50 AM36 °FPassing clouds.10 mph87%30.07 "HgN/A
4:50 AM34 °FPassing clouds.8 mph87%30.04 "HgN/A
3:50 AM34 °FChilly.9 mph87%30.04 "HgN/A
2:50 AM36 °FChilly.6 mph81%30.01 "HgN/A
1:50 AM37 °FChilly.9 mph75%30.01 "HgN/A
12:50 AM39 °FChilly.10 mph75%29.98 "HgN/A
11:50 PM
Thu, Mar 26
41 °FQuite cool.13 mph70%29.98 "HgN/A
10:50 PM43 °FQuite cool.13 mph66%29.95 "HgN/A
9:50 PM43 °FQuite cool.13 mph66%29.92 "HgN/A
8:50 PM43 °FClear.12 mph71%29.92 "Hg10 mi
7:50 PM45 °FClear.15 mph66%29.89 "Hg10 mi
6:50 PM46 °FPassing clouds.13 mph62%29.86 "HgN/A
5:50 PM48 °FPartly sunny.14 mph58%29.80 "HgN/A
4:50 PM48 °FScattered clouds.20 mph58%29.77 "HgN/A
3:50 PM50 °FSunny.23 mph54%29.74 "Hg10 mi
2:50 PM48 °FSprinkles. Scattered clouds.20 mph62%29.71 "HgN/A
1:50 PM50 °FScattered clouds.23 mph58%29.68 "HgN/A
12:50 PM50 °FScattered clouds.23 mph62%29.65 "HgN/A
11:50 AM50 °FScattered clouds.23 mph62%29.59 "HgN/A
10:50 AM50 °FBroken clouds.20 mph71%29.56 "HgN/A
9:50 AM48 °FBroken clouds.16 mph76%29.53 "HgN/A
8:50 AM45 °FSprinkles. Broken clouds.12 mph93%29.50 "HgN/A
Weather by CustomWeather, © 2015

See weather overviewHow to use our weather pages